TimeAKDT,TemperatureF,Dew PointF,Humidity,Sea Level PressureIn,VisibilityMPH,Wind Direction,Wind SpeedMPH,Gust SpeedMPH,PrecipitationIn,Events,Conditions,WindDirDegrees,DateUTC
12:08 AM,50.0,48.2,94,30.04,3.0,South,25.3,33.4,N/A,Rain,Rain,190,2012-10-08 08:08:00
12:28 AM,50.0,48.2,94,30.03,8.0,South,31.1,40.3,N/A,Rain,Rain,180,2012-10-08 08:28:00
12:55 AM,50.0,49.1,97,30.04,5.0,South,29.9,39.1,0.06,Rain,Light Rain,180,2012-10-08 08:55:00
1:55 AM,50.4,49.5,97,30.05,5.0,South,28.8,36.8,0.02,Rain,Light Rain,180,2012-10-08 09:55:00
2:55 AM,49.8,49.1,97,30.08,8.0,South,20.7,29.9,0.00,Rain,Light Rain,170,2012-10-08 10:55:00
3:28 AM,50.0,50.0,100,30.09,8.0,SSE,12.7,20.7,N/A,,Light Drizzle,160,2012-10-08 11:28:00
3:55 AM,48.2,48.2,100,30.10,6.0,South,8.1,-,0.02,Rain,Light Rain,180,2012-10-08 11:55:00
4:55 AM,47.7,48.4,100,30.09,4.0,South,11.5,-,0.02,,Light Drizzle,190,2012-10-08 12:55:00
5:55 AM,48.9,48.7,99,30.10,6.0,South,9.2,-,N/A,Rain,Light Rain Showers,170,2012-10-08 13:55:00
6:28 AM,50.0,48.2,94,30.09,10.0,South,13.8,-,N/A,Rain,Light Rain Showers,170,2012-10-08 14:28:00
6:48 AM,50.0,48.2,94,30.08,10.0,South,18.4,20.7,N/A,,Overcast,170,2012-10-08 14:48:00
6:55 AM,50.2,49.3,97,30.09,10.0,Variable,5.8,-,0.00,,Overcast,0,2012-10-08 14:55:00
7:08 AM,50.0,50.0,100,30.09,10.0,South,6.9,16.1,N/A,,Overcast,170,2012-10-08 15:08:00
7:55 AM,48.2,48.2,100,30.08,10.0,North,5.8,-,N/A,,Overcast,360,2012-10-08 15:55:00
8:28 AM,48.2,48.2,100,30.09,10.0,Variable,5.8,-,N/A,,Overcast,0,2012-10-08 16:28:00
8:48 AM,48.2,48.2,100,30.09,10.0,ENE,9.2,12.7,N/A,,Overcast,70,2012-10-08 16:48:00
8:55 AM,49.1,47.7,95,30.09,10.0,NNW,8.1,12.7,N/A,,Overcast,340,2012-10-08 16:55:00
9:08 AM,48.2,48.2,100,30.09,10.0,NNW,5.8,-,N/A,,Mostly Cloudy,340,2012-10-08 17:08:00
9:55 AM,48.6,47.7,97,30.12,10.0,North,-9999.0,-,N/A,,Mostly Cloudy,0,2012-10-08 17:55:00
10:28 AM,50.0,48.2,94,30.12,10.0,SSE,6.9,-,N/A,,Overcast,160,2012-10-08 18:28:00
10:55 AM,49.1,47.8,95,30.13,10.0,South,6.9,-,N/A,,Overcast,180,2012-10-08 18:55:00
11:28 AM,48.2,48.2,100,30.13,10.0,SSW,5.8,-,N/A,,Overcast,200,2012-10-08 19:28:00
11:55 AM,48.0,47.8,99,30.14,10.0,ESE,12.7,17.3,N/A,,Overcast,110,2012-10-08 19:55:00
12:28 PM,50.0,48.2,94,30.14,10.0,South,6.9,-,N/A,,Mostly Cloudy,170,2012-10-08 20:28:00
12:55 PM,50.2,48.7,95,30.14,10.0,South,9.2,-,N/A,,Mostly Cloudy,170,2012-10-08 20:55:00
1:55 PM,50.4,46.8,87,30.13,10.0,SE,18.4,-,N/A,,Mostly Cloudy,130,2012-10-08 21:55:00
2:48 PM,51.8,46.4,82,30.14,10.0,Variable,4.6,-,N/A,,Scattered Clouds,0,2012-10-08 22:48:00
2:55 PM,52.2,47.1,83,30.13,10.0,ENE,6.9,-,N/A,,Mostly Cloudy,70,2012-10-08 22:55:00
3:28 PM,50.0,48.2,94,30.14,10.0,East,17.3,-,N/A,,Scattered Clouds,100,2012-10-08 23:28:00
3:55 PM,51.8,48.2,88,30.14,10.0,East,10.4,-,N/A,,Clear,90,2012-10-08 23:55:00
4:55 PM,50.9,46.0,83,30.11,10.0,SE,12.7,20.7,N/A,,Partly Cloudy,130,2012-10-09 00:55:00
5:55 PM,48.2,45.9,92,30.09,10.0,SE,24.2,28.8,N/A,,Clear,140,2012-10-09 01:55:00
6:55 PM,48.0,45.1,90,30.08,10.0,South,28.8,36.8,N/A,,Clear,170,2012-10-09 02:55:00
7:55 PM,48.2,45.3,90,30.08,10.0,South,31.1,35.7,N/A,,Clear,170,2012-10-09 03:55:00
8:55 PM,49.1,45.1,86,30.12,10.0,South,6.9,13.8,N/A,,Scattered Clouds,180,2012-10-09 04:55:00
9:55 PM,48.2,44.2,86,30.13,10.0,Variable,2.3,-,N/A,,Partly Cloudy,0,2012-10-09 05:55:00
10:28 PM,48.2,44.6,87,30.14,10.0,East,6.9,-,N/A,,Mostly Cloudy,90,2012-10-09 06:28:00
10:48 PM,48.2,44.6,87,30.14,10.0,Variable,4.6,-,N/A,,Partly Cloudy,0,2012-10-09 06:48:00
10:55 PM,48.0,45.0,89,30.14,10.0,Variable,6.9,-,N/A,,Partly Cloudy,0,2012-10-09 06:55:00
11:55 PM,46.4,44.6,93,30.13,10.0,ESE,4.6,-,N/A,,Clear,120,2012-10-09 07:55:00